When you browse on this site, cookies collect data to enhance your experience and personalize the content and advertising you see.
Visit our Privacy Policy to learn more. By continuing to use the site, you agree to this use of cookies and data.
  • en France
  • Liste des pays
  • À 7 jours
  • Température de l'eau
  • Carte satellitaire
  • Carte météo
  • Widgets météo
  • user-avatar
    Se connecter

    Météo par heure à Plovdiv

    Ce jour, 25 Mai, Samedi

    Heure Température Précipitation Vent Pression Humidité
    00:00 +14°C° 0 mm 2 m/s 735 mmHg 81%
    01:00 +13°C° 0 mm 2 m/s 735 mmHg 81%
    02:00 +13°C° 0 mm 2 m/s 735 mmHg 81%
    03:00 +13°C° 0 mm 2 m/s 735 mmHg 80%
    04:00 +13°C° 0 mm 2 m/s 735 mmHg 79%
    05:00 +12°C° 0 mm 2 m/s 735 mmHg 78%
    06:00 +15°C° 0 mm 2 m/s 736 mmHg 72%
    07:00 +17°C° 0 mm 2 m/s 736 mmHg 65%
    08:00 +19°C° 0 mm 2 m/s 736 mmHg 58%
    09:00 +21°C° 0 mm 2 m/s 736 mmHg 54%
    10:00 +22°C° 0 mm 3 m/s 736 mmHg 49%
    11:00 +25°C° 0 mm 3 m/s 736 mmHg 44%
    12:00 +25°C° 0.1 mm 3 m/s 736 mmHg 44%
    13:00 +26°C° 0.1 mm 3 m/s 736 mmHg 44%
    14:00 +26°C° 0.1 mm 3 m/s 736 mmHg 44%
    15:00 +26°C° 0.2 mm 3 m/s 736 mmHg 46%
    16:00 +25°C° 0.2 mm 3 m/s 736 mmHg 48%
    17:00 +25°C° 0.2 mm 2 m/s 736 mmHg 50%
    18:00 +23°C° 0.1 mm 2 m/s 736 mmHg 57%
    19:00 +20°C° 0.1 mm 2 m/s 736 mmHg 64%
    20:00 +19°C° 0.1 mm 1 m/s 736 mmHg 71%
    21:00 +17°C° 0 mm 2 m/s 737 mmHg 72%
    22:00 +16°C° 0 mm 2 m/s 737 mmHg 74%
    23:00 +16°C° 0 mm 2 m/s 737 mmHg 76%

    Demain, 26 Mai, Dimanche

    Heure Température Précipitation Vent Pression Humidité
    00:00 +15°C° 0 mm 2 m/s 737 mmHg 77%
    01:00 +15°C° 0 mm 2 m/s 737 mmHg 78%
    02:00 +15°C° 0 mm 2 m/s 737 mmHg 79%
    03:00 +15°C° 0 mm 2 m/s 737 mmHg 79%
    04:00 +14°C° 0 mm 1 m/s 737 mmHg 79%
    05:00 +14°C° 0 mm 1 m/s 738 mmHg 79%
    06:00 +18°C° 0 mm 1 m/s 738 mmHg 72%
    07:00 +20°C° 0 mm 1 m/s 738 mmHg 64%
    08:00 +21°C° 0 mm 0 m/s 738 mmHg 57%
    09:00 +24°C° 0 mm 1 m/s 739 mmHg 52%
    10:00 +26°C° 0 mm 1 m/s 739 mmHg 46%
    11:00 +27°C° 0 mm 2 m/s 739 mmHg 41%
    12:00 +27°C° 0 mm 2 m/s 739 mmHg 42%
    13:00 +28°C° 0 mm 2 m/s 739 mmHg 42%
    14:00 +28°C° 0 mm 2 m/s 738 mmHg 42%
    15:00 +28°C° 0 mm 2 m/s 738 mmHg 45%
    16:00 +27°C° 0 mm 2 m/s 738 mmHg 48%
    17:00 +27°C° 0 mm 2 m/s 738 mmHg 51%
    18:00 +25°C° 0 mm 1 m/s 738 mmHg 59%
    19:00 +23°C° 0 mm 1 m/s 738 mmHg 66%
    20:00 +21°C° 0 mm 1 m/s 738 mmHg 74%
    21:00 +21°C° 0 mm 1 m/s 738 mmHg 76%
    22:00 +20°C° 0 mm 1 m/s 738 mmHg 79%
    23:00 +19°C° 0 mm 1 m/s 739 mmHg 82%

    Après-demain, 27 Mai, Lundi

    Heure Température Précipitation Vent Pression Humidité
    00:00 +19°C° 0 mm 1 m/s 738 mmHg 83%
    01:00 +18°C° 0 mm 1 m/s 738 mmHg 84%
    02:00 +18°C° 0 mm 1 m/s 738 mmHg 85%
    03:00 +18°C° 0 mm 1 m/s 738 mmHg 86%
    04:00 +18°C° 0 mm 1 m/s 738 mmHg 87%
    05:00 +16°C° 0 mm 1 m/s 738 mmHg 88%
    06:00 +19°C° 0 mm 1 m/s 738 mmHg 81%
    07:00 +21°C° 0 mm 1 m/s 738 mmHg 74%
    08:00 +24°C° 0 mm 1 m/s 739 mmHg 67%
    09:00 +25°C° 0 mm 2 m/s 739 mmHg 59%
    10:00 +27°C° 0 mm 2 m/s 739 mmHg 52%
    11:00 +28°C° 0 mm 3 m/s 739 mmHg 45%
    12:00 +29°C° 0 mm 3 m/s 738 mmHg 42%
    13:00 +29°C° 0 mm 3 m/s 738 mmHg 40%
    14:00 +30°C° 0 mm 4 m/s 738 mmHg 38%
    15:00 +30°C° 0 mm 3 m/s 738 mmHg 42%
    16:00 +29°C° 0 mm 3 m/s 737 mmHg 46%
    17:00 +28°C° 0 mm 3 m/s 737 mmHg 49%
    18:00 +27°C° 0 mm 3 m/s 737 mmHg 55%
    19:00 +25°C° 0 mm 2 m/s 737 mmHg 61%
    20:00 +23°C° 0 mm 2 m/s 736 mmHg 67%
    21:00 +21°C° 0 mm 2 m/s 736 mmHg 66%
    22:00 +20°C° 0 mm 2 m/s 736 mmHg 66%
    23:00 +19°C° 0 mm 2 m/s 736 mmHg 65%

    28 Mai, Mardi

    Heure Température Précipitation Vent Pression Humidité
    00:00 +18°C° 0 mm 2 m/s 736 mmHg 63%
    01:00 +18°C° 0 mm 2 m/s 736 mmHg 61%
    02:00 +17°C° 0 mm 2 m/s 736 mmHg 60%
    03:00 +17°C° 0 mm 2 m/s 736 mmHg 60%
    04:00 +16°C° 0 mm 2 m/s 736 mmHg 60%
    05:00 +16°C° 0 mm 2 m/s 735 mmHg 60%
    06:00 +18°C° 0 mm 2 m/s 736 mmHg 56%
    07:00 +21°C° 0 mm 2 m/s 736 mmHg 52%
    08:00 +24°C° 0 mm 2 m/s 736 mmHg 49%
    09:00 +26°C° 0 mm 3 m/s 736 mmHg 44%
    10:00 +28°C° 0 mm 3 m/s 735 mmHg 39%
    11:00 +30°C° 0 mm 4 m/s 735 mmHg 35%
    12:00 +32°C° 0 mm 4 m/s 735 mmHg 32%
    13:00 +33°C° 0 mm 4 m/s 735 mmHg 28%
    14:00 +34°C° 0 mm 4 m/s 734 mmHg 25%
    15:00 +33°C° 0 mm 4 m/s 734 mmHg 27%
    16:00 +33°C° 0 mm 4 m/s 734 mmHg 28%
    17:00 +32°C° 0 mm 4 m/s 733 mmHg 30%
    18:00 +28°C° 0 mm 3 m/s 733 mmHg 38%
    19:00 +26°C° 0 mm 3 m/s 733 mmHg 47%
    20:00 +22°C° 0 mm 3 m/s 733 mmHg 56%
    21:00 +21°C° 0 mm 3 m/s 733 mmHg 60%
    22:00 +20°C° 0 mm 2 m/s 734 mmHg 64%
    23:00 +19°C° 0 mm 2 m/s 734 mmHg 68%

    29 Mai, Mercredi

    Heure Température Précipitation Vent Pression Humidité
    00:00 +19°C° 0 mm 2 m/s 734 mmHg 69%
    01:00 +18°C° 0 mm 2 m/s 734 mmHg 71%
    02:00 +18°C° 0 mm 2 m/s 734 mmHg 72%
    03:00 +17°C° 0 mm 2 m/s 734 mmHg 73%
    04:00 +17°C° 0 mm 2 m/s 734 mmHg 74%
    05:00 +17°C° 0 mm 2 m/s 735 mmHg 75%
    06:00 +20°C° 0 mm 1 m/s 735 mmHg 68%
    07:00 +22°C° 0 mm 1 m/s 735 mmHg 60%
    08:00 +25°C° 0 mm 1 m/s 736 mmHg 53%
    09:00 +26°C° 0 mm 1 m/s 736 mmHg 49%
    10:00 +28°C° 0 mm 1 m/s 736 mmHg 45%
    11:00 +29°C° 0 mm 2 m/s 736 mmHg 41%
    12:00 +29°C° 0 mm 2 m/s 736 mmHg 41%
    13:00 +29°C° 0 mm 2 m/s 736 mmHg 42%
    14:00 +29°C° 0 mm 2 m/s 736 mmHg 43%
    15:00 +29°C° 0 mm 1 m/s 736 mmHg 43%
    16:00 +29°C° 0 mm 1 m/s 736 mmHg 43%
    17:00 +29°C° 0 mm 1 m/s 736 mmHg 43%
    18:00 +27°C° 0 mm 1 m/s 736 mmHg 49%
    19:00 +23°C° 0 mm 0 m/s 736 mmHg 55%
    20:00 +21°C° 0 mm 0 m/s 736 mmHg 62%
    21:00 +22°C° 0 mm 1 m/s 737 mmHg 64%
    22:00 +22°C° 0 mm 1 m/s 737 mmHg 66%
    23:00 +20°C° 0 mm 2 m/s 737 mmHg 68%

    30 Mai, Jeudi

    Heure Température Précipitation Vent Pression Humidité
    00:00 +20°C° 0 mm 2 m/s 737 mmHg 69%
    01:00 +19°C° 0 mm 2 m/s 737 mmHg 70%
    02:00 +19°C° 0 mm 2 m/s 737 mmHg 71%
    03:00 +19°C° 0 mm 2 m/s 738 mmHg 72%
    04:00 +19°C° 0 mm 2 m/s 738 mmHg 72%
    05:00 +18°C° 0 mm 2 m/s 738 mmHg 73%
    06:00 +20°C° 0 mm 2 m/s 738 mmHg 67%
    07:00 +23°C° 0 mm 1 m/s 738 mmHg 62%
    08:00 +25°C° 0 mm 1 m/s 739 mmHg 56%
    09:00 +27°C° 0.2 mm 1 m/s 739 mmHg 56%
    10:00 +28°C° 0.2 mm 1 m/s 739 mmHg 55%
    11:00 +29°C° 0.2 mm 1 m/s 739 mmHg 54%
    12:00 +29°C° 1.7 mm 1 m/s 738 mmHg 55%
    13:00 +29°C° 1.7 mm 1 m/s 738 mmHg 56%
    14:00 +29°C° 1.7 mm 1 m/s 738 mmHg 57%
    15:00 +29°C° 1.9 mm 1 m/s 737 mmHg 58%
    16:00 +29°C° 1.9 mm 1 m/s 737 mmHg 59%
    17:00 +29°C° 1.9 mm 1 m/s 737 mmHg 59%
    18:00 +27°C° 0.7 mm 1 m/s 737 mmHg 64%
    19:00 +25°C° 0.7 mm 1 m/s 737 mmHg 69%
    20:00 +23°C° 0.7 mm 1 m/s 737 mmHg 74%
    21:00 +22°C° 0.4 mm 1 m/s 737 mmHg 78%
    22:00 +21°C° 0.4 mm 1 m/s 737 mmHg 81%
    23:00 +20°C° 0.4 mm 1 m/s 737 mmHg 85%
    Voir plus